Regional Weather Roundup
Issued by NWS

Home | Current Version | Previous Version | Graphics & Text | Print | Product List | Glossary On
Versions: 1 2 3 4 5 6 7 8 9 10 11 12 13 14 15 16 17 18 19 20 21 22 23 24 25 26 27 28 29 30 31 32 33 34 35 36 37 38 39 40 41 42 43 44 45 46 47 48 49 50
000
ASUS43 KLMK 180402
RWRKY
KENTUCKY REGIONAL WEATHER ROUNDUP
NATIONAL WEATHER SERVICE LOUISVILLE KY
1100 PM EST TUE JAN 17 2017

NOTE "FAIR" INDICATES FEW OR NO CLOUDS BELOW 12,000 FEET
WITH NO SIGNIFICANT WEATHER AND/OR OBSTRUCTIONS TO VISIBILITY.

KYZ001>023-026-027-061>063-070>075-180500-
WESTERN AND SOUTH CENTRAL KENTUCKY

CITY           SKY/WX    TMP DP  RH WIND       PRES   REMARKS
PADUCAH        CLOUDY    45  39  79 SW5       30.17R
HENDERSON      CLOUDY    45  37  76 W6        30.15R
OWENSBORO      CLOUDY    44  40  85 W8        30.15S
HOPKINSVILLE   CLOUDY    46  41  83 W7        30.17R
BOWLING GREEN  CLOUDY    49  41  74 W10       30.15R
GLASGOW        NOT AVBL
$$

KYZ024-025-028>034-038-045-046-053-180500-
NORTH CENTRAL KENTUCKY

CITY           SKY/WX    TMP DP  RH WIND       PRES   REMARKS
LOUISVILLE/SDF CLOUDY    45  38  76 W13       30.11R
LOUISVILLE/LOU CLOUDY    46  38  73 W10       30.11R
FORT KNOX      CLOUDY    43  41  93 W13       30.11R
$$

KYZ035>037-039>044-047>052-055>060-089>105-180500-
NORTHEAST KENTUCKY

CITY           SKY/WX    TMP DP  RH WIND       PRES   REMARKS
LEXINGTON      CLOUDY    48  40  73 W15       30.08R
COVINGTON      DRIZZLE   44  42  93 W10       30.05R
FRANKFORT      CLOUDY    47  39  74 W9        30.08R
$$

KYZ054-064>069-076>088-106>120-180500-
SOUTHEAST KENTUCKY

CITY           SKY/WX    TMP DP  RH WIND       PRES   REMARKS
JACKSON        CLOUDY    54  44  69 W8        30.03R
LONDON         CLOUDY    54  48  80 W10       30.07R
SOMERSET       CLOUDY    52  45  76 W8        30.10R
MIDDLESBORO    DRIZZLE   59  57  93 W6        30.06R
MONTICELLO     CLOUDY    53  47  79 W18       30.12
$$




USA.gov is the U.S. government's official web portal to all federal, state and local government web resources and services.